Regional Weather Roundup
Issued by NWS

Home | Current Version | Previous Version | Graphics & Text | Print | Product List | Glossary On
Versions: 1 2 3 4 5 6 7 8 9 10 11 12 13 14 15 16 17 18 19 20 21 22 23 24 25 26 27 28
000
ASUS45 KSLC 190210
RWRUT

UTAH REGIONAL WEATHER ROUNDUP
NATIONAL WEATHER SERVICE SALT LAKE CITY UT
700 PM MST SAT FEB 18 2017

UTZ001>011-023>025-190300-

NORTHERN UTAH

CITY           SKY/WX    TMP DP  RH WIND       PRES   REMARKS
BRIGHAM CITY     N/A     44  37  77 NW6       29.61S
HILL AFB       CLOUDY    46  36  66 E9        29.60R
LOGAN          CLOUDY    43  38  82 CALM      29.60F
OGDEN          CLOUDY    45  39  79 E3        29.59S
SALT LAKE CITY CLOUDY    52  35  52 S9        29.59R
TOOELE VALLEY  CLOUDY    50  37  62 SW3       29.60R
WENDOVER       CLOUDY    45  39  81 W5        29.56S
HEBER CITY     CLOUDY    45  30  57 CALM      29.65R
WEST JORDAN    CLOUDY    53  43  68 S12       29.61R

$$

UTZ011>015-024>027-190300-

CENTRAL/NORTHEAST UTAH

CITY           SKY/WX    TMP DP  RH WIND       PRES   REMARKS
PROVO AIRPORT  CLOUDY    51  32  48 SE10      29.63R
MOAB/CANYONLAN MOCLDY    44  41  89 N3        29.71R
DELTA          CLOUDY    45  39  81 W6        29.63R
PRICE          CLOUDY    36  36 100 E8        29.74S WCI  30
RICHFIELD      CLOUDY    48  34  57 N1        29.67R
ROOSEVELT      CLOUDY    41  36  81 N5        29.77S
VERNAL         CLOUDY    35  34  96 CALM      29.76R FOG

$$

UTZ013>016-019>022-027-190300-

SOUTHERN UTAH

CITY           SKY/WX    TMP DP  RH WIND       PRES   REMARKS
BRYCE CANYON   LGT SNOW  33  32  96 SE10      29.72R FOG     WCI  25
CEDAR CITY     CLOUDY    40  35  83 W5        29.64R
MILFORD        CLOUDY    43  39  86 S8        29.63R
ST GEORGE      CLOUDY    52  44  74 CALM      29.61R
HANKSVILLE     CLOUDY    43  41  93 N8        29.73S
KANAB          MOCLDY    45  43  93 N8        29.71R
BLANDING       CLOUDY    45  37  72 N7        29.78R

$$

REGIONAL REPORTS     COLORADO/ARIZONA

CITY           SKY/WX    TMP DP  RH WIND       PRES   REMARKS
CRAIG, CO      CLOUDY    34  30  85 CALM      29.78R
GRAND JUNCTION CLOUDY    43  39  86 N7        29.73S
RIFLE, CO      CLOUDY    47  34  60 CALM      29.74R
MONTROSE, CO   CLOUDY    44  34  67 W8        29.76R
CORTEZ, CO     CLOUDY    51  29  42 SE9       29.72R
COLORADO CITY  MOCLDY    46  37  71 E13       29.67S
PAGE, AZ       MOCLDY    48  40  73 CALM      29.66R
GRAND CANYON   CLOUDY    38  37  97 CALM      29.69R
KINGMAN, AZ    CLOUDY    49  42  77 SE20      29.58R
FLAGSTAFF, AZ  CLOUDY    38  35  89 CALM      29.68R

$$

REGIONAL REPORTS    NEVADA/IDAHO/WYOMING

CITY           SKY/WX    TMP DP  RH WIND       PRES   REMARKS
LAS VEGAS, NV  LGT RAIN  52  49  89 E8        29.57R
ELY, NY        CLOUDY    37  34  89 S15       29.59R WCI  28
ELKO, NV       LGT RAIN  41  38  89 CALM      29.52S
POCATELLO, ID  LGT RAIN  46  36  68 S17G25    29.57S
BURLEY, ID     CLOUDY    44  37  76 NW3       29.50S
FORT BRIDGER,  PTCLDY    34  34 100 CALM      29.71S
EVANSTON, WY   CLOUDY    34  28  79 E8        29.67S WCI  27
ROCK SPRINGS,  CLOUDY    38  30  73 S9        29.69R WCI  31
KEMMERER, WY     N/A     32  32 100 N6        29.69S WCI  26

$$




USA.gov is the U.S. government's official web portal to all federal, state and local government web resources and services.